QPF
0.00 0.00 0.00 0.00 0.00 0.00 0.00 0.00 0.00 0.00 0.00 0.00 0.00 0.00 0.01 0.00 0.01 0.01 0.00 0.00 0.00 0.00 0.00 0.00 0.00 0.01 0.01 0.01 0.01 0.01 0.01 0.03 0.03 0.04 0.03 0.05 0.05 0.05 0.02 0.01 0.10 0.18 0.28 0.23 0.05 0.00 0.00 0.00 0.00
0.00 0.00 0.00 0.00 0.00 0.00 0.00 0.00 0.00 0.00 0.00 0.00 0.00 0.00 0.01 0.01 0.01 0.01 0.00 0.00 0.00 0.00 0.00 0.00 0.00 0.00 0.00 0.00 0.00 0.01 0.01 0.01 0.03 0.09 0.09 0.04 0.05 0.08 0.02 0.00 0.06 0.12 0.20 0.17 0.05 0.04 0.02 0.00 0.00
0.00 0.00 0.00 0.00 0.00 0.00 0.00 0.00 0.00 0.00 0.00 0.00 0.00 0.00 0.00 0.00 0.00 0.00 0.00 0.00 0.00 0.00 0.00 0.00 0.00 0.00 0.00 0.00 0.00 0.00 0.00 0.00 0.01 0.03 0.07 0.06 0.06 0.05 0.05 0.01 0.01 0.07 0.09 0.17 0.16 0.22 0.08 0.01 0.00
0.00 0.00 0.00 0.00 0.00 0.00 0.00 0.00 0.00 0.00 0.00 0.00 0.00 0.00 0.00 0.00 0.00 0.00 0.00 0.00 0.00 0.00 0.00 0.00 0.00 0.00 0.00 0.00 0.00 0.00 0.00 0.00 0.00 0.00 0.02 0.09 0.12 0.15 0.12 0.04 0.02 0.04 0.00 0.01 0.03 0.21 0.21 0.06 0.00
0.00 0.00 0.00 0.00 0.00 0.00 0.00 0.00 0.00 0.00 0.00 0.00 0.00 0.00 0.00 0.00 0.00 0.00 0.00 0.00 0.00 0.00 0.00 0.00 0.00 0.00 0.00 0.00 0.00 0.00 0.00 0.00 0.00 0.00 0.00 0.01 0.08 0.12 0.15 0.06 0.02 0.04 0.01 0.02 0.06 0.07 0.20 0.17 0.02
0.00 0.00 0.00 0.00 0.00 0.00 0.00 0.00 0.00 0.00 0.00 0.00 0.00 0.00 0.00 0.00 0.00 0.00 0.00 0.00 0.00 0.00 0.00 0.00 0.00 0.00 0.00 0.00 0.00 0.00 0.00 0.00 0.00 0.00 0.00 0.00 0.01 0.07 0.13 0.12 0.12 0.14 0.09 0.08 0.10 0.11 0.15 0.16 0.02
0.00 0.00 0.00 0.00 0.00 0.00 0.00 0.00 0.00 0.00 0.00 0.00 0.00 0.00 0.00 0.00 0.00 0.00 0.00 0.00 0.00 0.00 0.00 0.00 0.00 0.00 0.00 0.00 0.00 0.00 0.00 0.00 0.00 0.00 0.00 0.00 0.00 0.01 0.04 0.06 0.10 0.11 0.15 0.13 0.03 0.03 0.07 0.08 0.02
0.00 0.00 0.00 0.00 0.00 0.00 0.00 0.00 0.00 0.00 0.00 0.00 0.00 0.00 0.00 0.00 0.00 0.00 0.00 0.00 0.00 0.00 0.00 0.00 0.00 0.00 0.00 0.00 0.00 0.00 0.00 0.00 0.00 0.00 0.00 0.00 0.00 0.00 0.05 0.10 0.04 0.04 0.11 0.09 0.03 0.03 0.04 0.07 0.02
0.00 0.00 0.00 0.00 0.00 0.00 0.00 0.00 0.00 0.00 0.00 0.00 0.00 0.00 0.00 0.00 0.00 0.00 0.00 0.00 0.00 0.00 0.00 0.00 0.00 0.00 0.00 0.00 0.00 0.00 0.00 0.00 0.00 0.00 0.00 0.00 0.00 0.00 0.00 0.06 0.07 0.06 0.12 0.09 0.06 0.04 0.01 0.02 0.02
0.00 0.00 0.00 0.00 0.00 0.00 0.00 0.00 0.00 0.00 0.00 0.00 0.00 0.00 0.00 0.00 0.00 0.00 0.00 0.00 0.00 0.00 0.00 0.00 0.00 0.00 0.00 0.00 0.00 0.00 0.00 0.00 0.00 0.00 0.00 0.00 0.00 0.00 0.00 0.00 0.04 0.07 0.10 0.09 0.04 0.02 0.01 0.03 0.01
0.00 0.00 0.00 0.00 0.00 0.00 0.00 0.00 0.00 0.00 0.00 0.00 0.00 0.00 0.00 0.00 0.00 0.00 0.00 0.00 0.00 0.00 0.00 0.00 0.00 0.00 0.00 0.00 0.00 0.00 0.00 0.00 0.00 0.00 0.00 0.00 0.00 0.00 0.00 0.00 0.03 0.05 0.04 0.07 0.03 0.00 0.00 0.01 0.01
0.00 0.00 0.00 0.00 0.00 0.00 0.00 0.00 0.00 0.00 0.00 0.00 0.00 0.00 0.00 0.00 0.00 0.00 0.00 0.00 0.00 0.00 0.00 0.00 0.00 0.00 0.00 0.00 0.00 0.00 0.00 0.00 0.00 0.00 0.00 0.00 0.00 0.00 0.00 0.00 0.00 0.02 0.03 0.04 0.08 0.06 0.01 0.01 0.02
0.00 0.00 0.00 0.00 0.00 0.00 0.00 0.00 0.00 0.00 0.00 0.00 0.00 0.00 0.00 0.00 0.00 0.00 0.00 0.00 0.00 0.00 0.00 0.00 0.00 0.00 0.00 0.00 0.00 0.00 0.00 0.00 0.00 0.00 0.00 0.00 0.00 0.00 0.00 0.00 0.00 0.01 0.04 0.02 0.04 0.06 0.05 0.07 0.05
0.00 0.00 0.00 0.00 0.00 0.00 0.00 0.00 0.00 0.00 0.00 0.00 0.00 0.00 0.00 0.00 0.00 0.00 0.00 0.00 0.00 0.00 0.00 0.00 0.00 0.00 0.00 0.00 0.00 0.00 0.00 0.00 0.00 0.00 0.00 0.00 0.00 0.00 0.00 0.00 0.00 0.00 0.01 0.02 0.00 0.02 0.05 0.10 0.03
0.00 0.00 0.00 0.00 0.00 0.00 0.00 0.00 0.00 0.00 0.00 0.00 0.00 0.00 0.00 0.00 0.00 0.00 0.00 0.00 0.00 0.00 0.00 0.00 0.00 0.00 0.00 0.00 0.00 0.00 0.00 0.00 0.00 0.00 0.00 0.00 0.00 0.00 0.00 0.00 0.00 0.00 0.00 0.00 0.00 0.00 0.04 0.05 0.01
0.00 0.00 0.00 0.00 0.00 0.00 0.00 0.00 0.00 0.00 0.00 0.00 0.00 0.00 0.00 0.00 0.00 0.00 0.00 0.00 0.00 0.00 0.00 0.00 0.00 0.00 0.00 0.00 0.00 0.00 0.00 0.00 0.00 0.00 0.00 0.00 0.00 0.00 0.00 0.00 0.00 0.00 0.00 0.00 0.00 0.00 0.03 0.05 0.00
0.00 0.00 0.00 0.00 0.00 0.00 0.00 0.00 0.00 0.00 0.00 0.00 0.00 0.00 0.00 0.00 0.00 0.00 0.00 0.00 0.00 0.00 0.00 0.00 0.00 0.00 0.00 0.00 0.00 0.00 0.00 0.00 0.00 0.00 0.00 0.00 0.00 0.00 0.00 0.00 0.00 0.00 0.00 0.00 0.00 0.00 0.01 0.02 0.01
0.00 0.00 0.00 0.00 0.00 0.00 0.00 0.00 0.00 0.00 0.00 0.00 0.00 0.00 0.00 0.00 0.00 0.00 0.00 0.00 0.00 0.00 0.00 0.00 0.00 0.00 0.00 0.00 0.00 0.00 0.00 0.00 0.00 0.00 0.00 0.00 0.00 0.00 0.00 0.00 0.00 0.00 0.00 0.00 0.00 0.00 0.00 0.01 0.01
0.00 0.00 0.00 0.00 0.00 0.00 0.00 0.00 0.00 0.00 0.00 0.00 0.00 0.00 0.00 0.00 0.00 0.00 0.00 0.00 0.00 0.00 0.00 0.00 0.00 0.00 0.00 0.00 0.00 0.00 0.00 0.00 0.00 0.00 0.00 0.00 0.00 0.00 0.00 0.00 0.00 0.00 0.00 0.00 0.00 0.00 0.00 0.01 0.00
0.00 0.00 0.00 0.00 0.00 0.00 0.00 0.00 0.00 0.00 0.00 0.00 0.00 0.00 0.00 0.00 0.00 0.00 0.00 0.00 0.00 0.00 0.00 0.00 0.00 0.00 0.00 0.00 0.00 0.00 0.00 0.00 0.00 0.00 0.00 0.00 0.00 0.00 0.00 0.00 0.00 0.00 0.00 0.00 0.00 0.00 0.00 0.01 0.01
0.00 0.00 0.00 0.00 0.00 0.00 0.00 0.00 0.00 0.00 0.00 0.00 0.00 0.00 0.00 0.00 0.00 0.00 0.00 0.00 0.00 0.00 0.00 0.00 0.00 0.00 0.00 0.00 0.00 0.00 0.00 0.00 0.00 0.00 0.00 0.00 0.00 0.00 0.00 0.00 0.00 0.00 0.00 0.00 0.00 0.00 0.00 0.00 0.01
0.00 0.00 0.00 0.00 0.00 0.00 0.00 0.00 0.00 0.00 0.00 0.00 0.00 0.00 0.00 0.00 0.00 0.00 0.00 0.00 0.00 0.00 0.00 0.00 0.00 0.00 0.00 0.00 0.00 0.00 0.00 0.00 0.00 0.00 0.00 0.00 0.01 0.00 0.00 0.00 0.00 0.00 0.00 0.00 0.00 0.00 0.00 0.00 0.01
0.00 0.00 0.00 0.00 0.00 0.00 0.00 0.00 0.00 0.00 0.00 0.00 0.00 0.00 0.00 0.00 0.00 0.00 0.00 0.00 0.00 0.00 0.00 0.00 0.00 0.00 0.00 0.00 0.00 0.00 0.00 0.00 0.00 0.00 0.00 0.00 0.00 0.00 0.00 0.00 0.00 0.00 0.00 0.00 0.00 0.00 0.00 0.00 0.00
0.00 0.00 0.00 0.00 0.00 0.00 0.00 0.00 0.00 0.00 0.00 0.00 0.00 0.00 0.00 0.00 0.00 0.00 0.00 0.00 0.00 0.00 0.00 0.00 0.00 0.00 0.00 0.00 0.00 0.00 0.00 0.00 0.00 0.00 0.00 0.00 0.00 0.00 0.00 0.00 0.00 0.01 0.00 0.00 0.00 0.00 0.00 0.00 0.00
0.00 0.00 0.00 0.00 0.00 0.00 0.00 0.00 0.00 0.00 0.00 0.00 0.00 0.00 0.00 0.00 0.00 0.00 0.00 0.00 0.00 0.00 0.00 0.00 0.00 0.00 0.00 0.00 0.00 0.00 0.00 0.00 0.00 0.01 0.00 0.00 0.00 0.00 0.00 0.00 0.00 0.00 0.00 0.00 0.00 0.00 0.00 0.00 0.00
0.00 0.00 0.00 0.00 0.00 0.00 0.00 0.00 0.00 0.00 0.00 0.00 0.00 0.00 0.00 0.00 0.00 0.00 0.00 0.00 0.00 0.00 0.00 0.00 0.00 0.00 0.00 0.00 0.00 0.00 0.00 0.00 0.00 0.00 0.00 0.00 0.00 0.00 0.00 0.00 0.00 0.00 0.00 0.00 0.00 0.00 0.00 0.00 0.00
0.00 0.00 0.00 0.00 0.00 0.00 0.00 0.00 0.00 0.00 0.00 0.00 0.00 0.00 0.00 0.00 0.00 0.00 0.00 0.00 0.00 0.00 0.00 0.00 0.00 0.00 0.00 0.00 0.00 0.00 0.00 0.00 0.00 0.01 0.02 0.01 0.01 0.00 0.00 0.00 0.00 0.00 0.00 0.00 0.00 0.00 0.00 0.00 0.00
0.00 0.00 0.00 0.00 0.00 0.00 0.00 0.00 0.00 0.00 0.00 0.00 0.00 0.00 0.00 0.00 0.00 0.00 0.00 0.00 0.00 0.00 0.00 0.00 0.00 0.00 0.00 0.00 0.00 0.00 0.00 0.00 0.01 0.03 0.02 0.01 0.01 0.01 0.00 0.00 0.00 0.00 0.00 0.00 0.00 0.00 0.00 0.00 0.00
0.00 0.00 0.00 0.00 0.00 0.00 0.00 0.00 0.00 0.00 0.00 0.00 0.00 0.00 0.00 0.00 0.00 0.00 0.00 0.00 0.00 0.00 0.00 0.00 0.00 0.00 0.00 0.00 0.00 0.00 0.00 0.01 0.02 0.02 0.03 0.02 0.02 0.00 0.00 0.00 0.00 0.00 0.00 0.00 0.00 0.00 0.00 0.00 0.00
0.00 0.00 0.00 0.00 0.00 0.00 0.00 0.00 0.00 0.00 0.00 0.00 0.00 0.00 0.00 0.00 0.00 0.00 0.00 0.00 0.00 0.00 0.00 0.00 0.00 0.00 0.00 0.00 0.00 0.00 0.00 0.01 0.02 0.02 0.03 0.02 0.00 0.00 0.00 0.00 0.00 0.00 0.00 0.00 0.00 0.00 0.00 0.00 0.00
MSLP
1008.03 1006.69 1006.09 1005.72 1006.09 1008.55 1011.50 1014.25 1015.29 1016.30 1018.21 1020.46 1020.39 1020.43 1021.97 1022.98 1023.76 1025.16 1025.74 1026.03 1025.97 1025.73 1025.76 1025.68 1023.98 1023.50 1022.66 1021.47 1021.04 1020.51 1019.75 1018.83 1018.14 1017.47 1016.83 1016.34 1016.13 1015.90 1015.97 1016.11 1016.13 1016.16 1016.44 1016.69 1016.53 1016.69 1016.79 1017.05 1017.31
1007.30 1006.02 1004.87 1004.95 1006.34 1009.07 1013.12 1014.77 1015.74 1017.49 1019.24 1020.15 1020.76 1021.51 1022.32 1023.87 1024.49 1025.12 1025.66 1026.03 1025.67 1025.73 1025.49 1025.54 1024.41 1023.43 1023.52 1021.98 1021.58 1021.33 1020.69 1019.76 1018.93 1018.17 1017.55 1016.96 1016.43 1016.05 1016.34 1016.49 1016.41 1016.44 1016.67 1016.57 1016.72 1016.85 1017.06 1017.32 1017.53
1007.53 1005.64 1004.47 1006.11 1009.30 1011.04 1013.63 1015.20 1016.52 1017.67 1018.50 1018.95 1020.41 1021.06 1021.99 1023.57 1024.51 1024.78 1025.58 1025.65 1025.15 1025.19 1025.28 1025.22 1024.33 1022.41 1022.84 1022.73 1022.74 1022.03 1021.43 1020.64 1019.67 1018.94 1018.23 1017.62 1017.04 1016.40 1016.67 1016.79 1017.02 1017.05 1017.06 1017.05 1016.97 1016.97 1017.29 1017.57 1017.81
1006.46 1005.09 1006.83 1008.40 1010.94 1013.08 1014.05 1014.43 1015.37 1016.00 1017.10 1018.06 1019.32 1021.14 1022.99 1024.11 1024.33 1024.93 1024.93 1024.69 1024.69 1024.93 1025.05 1024.50 1023.90 1023.87 1023.63 1023.95 1022.87 1022.19 1022.16 1021.42 1020.39 1019.73 1019.04 1018.33 1017.76 1017.10 1016.97 1017.05 1017.13 1017.43 1017.58 1017.53 1017.43 1017.44 1017.61 1017.84 1018.13
1005.39 1006.45 1008.63 1010.58 1012.46 1013.71 1014.34 1014.83 1015.47 1016.39 1017.48 1018.15 1018.77 1021.23 1022.76 1023.80 1024.19 1024.57 1024.33 1024.22 1024.48 1024.59 1024.71 1024.67 1023.69 1024.25 1024.35 1023.96 1022.35 1022.69 1022.65 1021.88 1021.02 1020.12 1019.54 1019.05 1018.32 1017.78 1017.41 1017.23 1017.33 1017.55 1017.92 1018.04 1017.94 1018.01 1017.98 1018.01 1018.36
1005.17 1007.05 1009.28 1011.59 1013.51 1014.84 1015.27 1015.56 1016.16 1017.03 1017.80 1018.25 1019.20 1020.94 1022.76 1023.68 1023.92 1023.91 1023.64 1023.72 1024.12 1024.37 1024.47 1024.44 1024.47 1024.22 1023.45 1023.90 1022.18 1022.93 1022.81 1022.13 1021.49 1020.65 1020.15 1019.38 1018.89 1018.41 1017.65 1016.88 1017.60 1017.67 1017.88 1018.19 1018.20 1018.38 1018.25 1018.22 1018.44
1004.73 1007.04 1009.97 1012.24 1014.07 1015.49 1016.40 1016.56 1016.79 1017.60 1018.50 1019.30 1019.13 1020.70 1022.60 1023.46 1023.53 1023.32 1023.17 1023.27 1023.86 1024.24 1024.41 1024.37 1024.20 1023.76 1023.06 1022.40 1022.15 1022.94 1023.00 1022.25 1021.94 1021.42 1020.81 1020.04 1019.33 1019.01 1018.43 1018.04 1017.85 1017.88 1017.75 1017.89 1018.12 1018.40 1018.53 1018.47 1018.56
1006.15 1008.26 1010.36 1012.28 1014.41 1016.18 1017.28 1017.66 1018.32 1018.49 1019.70 1019.91 1019.97 1020.93 1022.53 1023.34 1023.25 1023.01 1022.95 1023.02 1023.50 1024.06 1024.37 1024.46 1024.47 1024.29 1023.78 1023.00 1022.59 1022.73 1022.78 1022.41 1022.15 1021.94 1021.36 1020.76 1020.05 1019.53 1019.20 1018.65 1018.26 1017.98 1017.71 1017.68 1017.92 1018.26 1018.19 1018.50 1018.47
1006.64 1008.40 1010.65 1012.60 1014.27 1016.54 1017.49 1018.30 1019.25 1019.83 1020.56 1021.30 1021.91 1022.60 1023.01 1022.98 1022.90 1022.79 1022.83 1022.93 1023.31 1023.83 1024.37 1024.49 1024.60 1024.57 1024.25 1023.51 1023.62 1023.14 1022.49 1022.78 1022.26 1022.21 1021.85 1021.25 1020.80 1020.34 1019.80 1019.21 1018.67 1018.11 1017.55 1017.35 1017.51 1017.84 1018.11 1018.40 1018.46
1007.77 1010.63 1013.02 1014.29 1015.50 1016.64 1017.53 1018.55 1019.23 1019.46 1020.25 1021.10 1021.92 1022.52 1022.73 1022.70 1022.64 1022.70 1022.73 1022.84 1023.27 1023.76 1024.29 1024.65 1024.76 1024.75 1024.50 1023.85 1023.60 1023.35 1023.01 1022.68 1022.48 1022.48 1022.53 1021.84 1021.69 1021.31 1020.56 1019.87 1019.20 1018.52 1017.63 1017.01 1017.19 1017.40 1017.88 1018.25 1018.56
1011.00 1012.97 1014.85 1015.78 1016.39 1017.33 1018.32 1019.09 1019.39 1019.68 1020.51 1021.71 1022.04 1022.38 1022.63 1022.61 1022.55 1022.63 1022.91 1023.01 1023.38 1023.74 1024.24 1024.71 1024.85 1025.07 1024.93 1024.48 1024.09 1023.82 1023.26 1022.93 1022.66 1022.75 1022.64 1022.25 1022.69 1022.37 1021.25 1020.60 1019.86 1019.24 1018.25 1017.32 1017.12 1017.36 1017.78 1018.10 1018.42
1013.37 1015.26 1016.33 1017.09 1017.49 1017.93 1018.71 1019.54 1020.26 1020.58 1021.59 1022.12 1022.62 1022.92 1022.76 1022.83 1022.72 1022.76 1022.90 1023.18 1023.50 1023.77 1024.12 1024.67 1024.92 1025.19 1025.34 1025.00 1024.84 1024.29 1023.64 1023.21 1023.15 1022.87 1022.82 1023.01 1023.37 1022.53 1022.05 1021.23 1020.60 1019.82 1019.22 1018.36 1017.38 1017.30 1017.46 1017.67 1018.16
1015.50 1016.70 1017.57 1018.19 1018.71 1019.13 1019.34 1019.98 1020.55 1021.42 1022.03 1022.49 1022.79 1022.83 1022.72 1022.62 1022.73 1022.81 1022.99 1023.16 1023.53 1023.72 1023.99 1024.52 1024.83 1025.26 1025.39 1025.35 1025.10 1024.72 1024.00 1023.57 1023.34 1022.68 1022.72 1023.04 1023.29 1023.00 1022.69 1021.79 1021.07 1020.42 1019.97 1019.37 1018.55 1017.90 1017.36 1017.42 1017.87
1016.56 1017.31 1018.10 1018.76 1019.27 1019.50 1019.55 1020.47 1020.90 1021.44 1022.24 1022.27 1022.35 1022.22 1022.13 1022.32 1022.51 1022.66 1022.61 1023.07 1023.60 1023.55 1023.68 1024.29 1024.67 1024.97 1025.25 1025.49 1025.33 1024.95 1024.23 1023.73 1023.34 1022.70 1022.86 1023.06 1023.16 1023.16 1022.90 1022.16 1021.49 1020.90 1020.39 1019.78 1019.12 1018.46 1017.79 1017.19 1017.89
1016.77 1017.23 1017.77 1018.51 1019.08 1019.57 1019.87 1019.97 1020.09 1021.09 1021.80 1021.63 1021.60 1021.45 1021.45 1021.71 1021.82 1021.87 1022.14 1022.51 1022.85 1023.04 1023.20 1023.75 1024.19 1024.50 1025.06 1025.28 1025.21 1024.85 1024.42 1023.83 1023.41 1022.69 1022.47 1022.81 1022.94 1022.84 1022.57 1022.54 1022.07 1021.24 1020.63 1020.01 1019.31 1018.31 1017.88 1017.71 1017.74
1016.01 1016.26 1016.43 1018.13 1018.50 1019.53 1019.82 1018.83 1019.68 1020.47 1020.79 1020.78 1020.74 1020.67 1020.70 1020.65 1020.86 1021.17 1021.43 1021.67 1021.90 1022.25 1022.70 1023.12 1023.48 1024.13 1024.69 1025.06 1024.99 1024.65 1024.33 1023.95 1023.27 1022.73 1022.36 1022.70 1022.90 1022.80 1022.63 1022.69 1022.10 1021.47 1021.02 1020.44 1019.82 1018.64 1018.31 1017.82 1017.60
1014.95 1014.73 1015.66 1017.47 1018.23 1018.60 1018.88 1018.27 1018.75 1019.68 1020.21 1020.38 1020.31 1020.22 1020.14 1020.22 1020.39 1020.45 1020.60 1020.72 1020.93 1021.45 1022.10 1022.63 1023.13 1023.73 1024.33 1024.63 1024.61 1024.33 1024.30 1023.83 1023.39 1022.87 1022.29 1022.40 1022.72 1022.75 1022.50 1022.40 1022.22 1021.88 1021.15 1020.60 1020.00 1018.97 1018.81 1017.95 1017.11
1015.40 1015.27 1015.50 1016.42 1017.76 1018.08 1017.95 1017.47 1017.53 1018.37 1019.25 1019.65 1019.75 1019.57 1019.85 1020.13 1020.28 1020.53 1020.49 1020.42 1020.46 1020.89 1021.51 1022.14 1022.84 1023.54 1024.11 1024.36 1024.30 1024.15 1024.32 1023.88 1023.51 1022.98 1022.34 1022.19 1022.58 1022.79 1022.51 1022.28 1022.16 1021.68 1021.08 1020.82 1020.21 1019.31 1018.63 1018.29 1017.21
1015.98 1015.76 1015.84 1016.44 1017.82 1018.01 1017.21 1017.02 1016.81 1017.55 1018.34 1018.82 1019.11 1019.57 1019.95 1019.83 1020.02 1020.06 1020.49 1020.64 1020.75 1020.64 1021.16 1021.68 1022.53 1023.57 1024.39 1024.72 1024.43 1024.11 1024.24 1024.05 1023.52 1022.99 1022.32 1022.17 1022.13 1022.47 1022.35 1022.28 1022.02 1021.76 1021.02 1021.07 1020.58 1019.83 1018.97 1018.07 1017.60
1016.67 1016.83 1016.94 1016.94 1017.67 1017.90 1016.93 1016.79 1016.69 1017.42 1018.37 1019.00 1019.29 1019.47 1019.41 1019.42 1019.58 1019.96 1020.46 1020.87 1021.17 1021.21 1021.27 1021.58 1022.24 1023.30 1024.61 1024.25 1024.38 1024.31 1024.36 1024.17 1023.37 1022.83 1022.47 1021.93 1021.77 1022.19 1022.15 1022.17 1022.01 1021.73 1021.26 1021.26 1020.50 1019.82 1019.31 1018.67 1017.54
1017.53 1018.15 1017.93 1017.76 1017.28 1016.93 1016.66 1015.69 1016.55 1017.55 1017.92 1018.27 1018.66 1018.98 1019.35 1019.60 1019.82 1020.25 1020.69 1021.11 1021.29 1021.54 1021.87 1022.10 1022.80 1023.53 1024.92 1024.86 1023.92 1024.13 1024.24 1023.86 1023.38 1022.96 1022.47 1021.95 1021.47 1021.90 1022.27 1022.15 1021.99 1021.65 1021.61 1021.49 1020.76 1020.34 1020.05 1019.59 1017.59
1017.64 1018.87 1018.50 1017.87 1017.31 1016.57 1016.91 1016.08 1016.53 1017.25 1017.70 1018.00 1018.48 1019.03 1019.53 1019.86 1020.13 1020.65 1021.02 1021.41 1021.67 1021.93 1022.23 1022.65 1023.36 1023.91 1024.38 1024.31 1024.07 1024.34 1024.24 1024.21 1023.72 1023.09 1022.63 1022.55 1022.82 1022.16 1022.18 1022.17 1022.07 1022.00 1022.04 1021.53 1020.76 1020.40 1020.19 1019.38 1018.67
1018.65 1018.93 1018.63 1018.28 1017.74 1017.09 1016.45 1016.03 1016.37 1016.99 1017.81 1018.24 1018.78 1019.13 1019.49 1019.89 1020.34 1020.75 1021.28 1021.60 1021.83 1021.94 1022.42 1023.08 1023.53 1024.19 1024.96 1024.35 1024.08 1024.25 1024.19 1024.06 1023.75 1023.40 1023.15 1022.78 1022.87 1022.42 1022.31 1022.28 1022.15 1021.84 1022.01 1021.72 1021.03 1020.50 1020.09 1019.69 1019.43
1018.74 1018.08 1017.48 1017.94 1017.77 1017.11 1017.06 1017.17 1016.84 1017.60 1018.24 1018.56 1018.91 1019.10 1019.35 1019.80 1020.27 1020.90 1021.34 1021.71 1021.95 1022.25 1022.62 1023.04 1023.64 1023.89 1023.88 1023.96 1024.08 1024.42 1024.23 1024.13 1023.91 1023.79 1023.59 1023.09 1023.10 1022.74 1022.54 1022.34 1022.12 1021.88 1021.68 1021.35 1020.86 1020.70 1020.02 1019.61 1019.00
1018.35 1017.31 1016.24 1017.17 1017.30 1017.53 1017.92 1017.63 1017.60 1018.01 1018.37 1018.45 1018.59 1018.81 1019.33 1019.77 1020.26 1020.81 1021.25 1021.89 1022.25 1022.56 1022.83 1023.03 1023.34 1023.60 1023.72 1023.77 1024.15 1024.17 1024.26 1024.16 1023.94 1023.77 1023.65 1023.51 1023.16 1022.94 1022.81 1022.26 1021.88 1021.69 1021.44 1021.55 1021.33 1020.91 1020.36 1019.90 1018.99
1019.25 1019.10 1019.20 1019.21 1018.29 1018.11 1018.09 1017.75 1017.76 1017.97 1018.06 1018.05 1018.54 1018.91 1019.33 1019.70 1020.13 1020.61 1021.22 1021.89 1022.48 1022.74 1022.98 1023.26 1023.49 1023.54 1023.55 1023.77 1024.07 1024.17 1024.17 1024.12 1023.89 1023.90 1023.72 1023.62 1023.59 1023.22 1022.62 1022.14 1021.65 1021.51 1021.50 1021.58 1021.31 1020.79 1020.39 1019.21 1018.72
1019.76 1019.80 1020.71 1020.42 1019.29 1019.05 1017.28 1017.54 1017.62 1017.38 1017.67 1018.13 1018.56 1018.89 1019.23 1019.60 1019.96 1020.43 1021.09 1021.63 1022.39 1022.79 1023.05 1023.35 1023.65 1023.60 1023.58 1023.73 1023.88 1023.92 1024.11 1024.23 1024.06 1023.88 1023.88 1023.78 1023.57 1023.05 1022.56 1022.13 1021.82 1021.63 1021.52 1021.29 1021.08 1020.75 1020.07 1019.71 1018.88
1020.62 1021.02 1020.82 1020.70 1020.09 1019.11 1017.76 1017.37 1017.25 1017.39 1017.86 1018.25 1018.48 1018.65 1019.08 1019.47 1019.88 1020.34 1020.88 1021.53 1022.17 1022.57 1022.96 1023.30 1023.61 1023.60 1023.67 1023.86 1024.08 1024.19 1024.18 1024.17 1024.09 1024.06 1023.90 1023.67 1023.61 1023.06 1022.50 1022.10 1021.88 1021.85 1021.62 1021.22 1021.02 1020.58 1019.93 1019.47 1018.77
1020.29 1019.97 1020.71 1021.14 1020.86 1020.34 1019.17 1017.90 1017.74 1017.83 1018.22 1018.43 1018.47 1018.51 1018.93 1019.45 1019.84 1020.25 1020.87 1021.46 1022.02 1022.45 1022.86 1023.15 1023.42 1023.60 1023.70 1023.84 1024.05 1024.29 1024.36 1024.37 1024.09 1024.07 1024.04 1023.92 1023.63 1023.25 1022.75 1022.31 1022.08 1022.03 1021.84 1021.44 1021.09 1020.55 1020.37 1019.62 1018.90
1019.94 1020.05 1020.33 1020.90 1020.69 1020.69 1019.98 1018.53 1017.21 1017.81 1018.41 1018.50 1018.66 1018.62 1018.96 1019.29 1019.77 1020.21 1020.73 1021.17 1021.69 1022.11 1022.53 1022.83 1023.27 1023.58 1023.90 1023.89 1024.05 1024.24 1024.26 1024.18 1024.11 1024.16 1024.44 1023.99 1023.81 1023.43 1022.87 1022.39 1022.26 1022.22 1022.28 1022.14 1021.61 1020.94 1020.59 1020.01 1019.65
Thickness
5754 5765 5772 5764 5731 5704 5666 5659 5676 5669 5656 5638 5644 5645 5632 5627 5621 5611 5613 5611 5613 5617 5619 5619 5633 5633 5642 5650 5654 5660 5668 5678 5684 5689 5693 5695 5696 5701 5701 5701 5701 5702 5699 5697 5699 5700 5702 5701 5701
5758 5768 5771 5752 5711 5683 5653 5667 5659 5653 5641 5640 5637 5631 5624 5609 5613 5609 5607 5606 5611 5611 5613 5613 5617 5625 5631 5639 5644 5648 5655 5665 5674 5680 5685 5687 5691 5697 5695 5696 5697 5698 5695 5695 5697 5698 5698 5698 5698
5754 5768 5752 5719 5684 5666 5651 5658 5650 5649 5649 5650 5633 5637 5629 5614 5609 5608 5603 5604 5606 5608 5608 5608 5616 5630 5629 5627 5627 5638 5644 5653 5664 5670 5676 5680 5685 5691 5690 5693 5692 5692 5692 5693 5693 5693 5693 5694 5694
5752 5755 5734 5695 5668 5665 5659 5670 5669 5666 5662 5659 5646 5623 5615 5608 5606 5602 5601 5604 5604 5604 5605 5608 5614 5617 5615 5612 5623 5632 5633 5641 5653 5660 5666 5672 5677 5683 5686 5688 5688 5685 5686 5688 5691 5691 5690 5691 5690
5757 5734 5690 5670 5662 5666 5670 5671 5668 5655 5648 5647 5647 5617 5608 5605 5604 5599 5601 5601 5600 5599 5598 5600 5608 5601 5604 5604 5622 5619 5622 5631 5642 5651 5658 5663 5670 5674 5679 5682 5683 5681 5680 5682 5684 5683 5686 5688 5687
5732 5721 5677 5655 5651 5656 5660 5664 5657 5648 5644 5643 5634 5618 5603 5602 5598 5598 5598 5597 5594 5593 5593 5594 5592 5594 5601 5599 5616 5611 5614 5624 5633 5642 5648 5656 5662 5667 5675 5684 5677 5676 5678 5677 5677 5676 5679 5683 5684
5738 5709 5674 5661 5648 5644 5645 5656 5650 5641 5633 5625 5636 5612 5602 5595 5595 5595 5593 5591 5588 5584 5582 5584 5586 5590 5596 5604 5608 5599 5603 5614 5622 5628 5635 5644 5652 5657 5663 5668 5670 5671 5676 5675 5674 5675 5674 5678 5680
5733 5708 5676 5669 5646 5633 5643 5642 5640 5635 5619 5629 5627 5609 5593 5591 5592 5591 5587 5583 5578 5575 5572 5570 5572 5573 5578 5588 5590 5591 5593 5602 5609 5616 5624 5630 5638 5646 5651 5657 5664 5668 5673 5674 5674 5673 5675 5673 5676
5742 5697 5675 5668 5656 5638 5645 5631 5630 5628 5615 5610 5605 5595 5592 5592 5590 5587 5581 5576 5570 5563 5558 5555 5556 5558 5561 5567 5569 5576 5588 5588 5597 5603 5613 5621 5626 5631 5639 5646 5654 5664 5670 5672 5672 5672 5672 5672 5674
5717 5678 5660 5665 5657 5645 5643 5632 5627 5627 5619 5610 5602 5598 5594 5590 5586 5579 5573 5567 5560 5553 5547 5540 5537 5539 5542 5547 5557 5561 5569 5576 5585 5590 5597 5607 5611 5616 5625 5633 5645 5655 5665 5669 5670 5672 5670 5670 5671
5693 5662 5659 5655 5655 5647 5634 5627 5631 5623 5611 5601 5595 5592 5588 5584 5579 5573 5565 5558 5550 5540 5534 5528 5521 5520 5520 5523 5533 5540 5550 5561 5567 5575 5585 5593 5594 5600 5612 5620 5632 5642 5653 5662 5667 5667 5667 5668 5670
5665 5659 5652 5647 5648 5642 5631 5628 5615 5615 5601 5599 5591 5584 5581 5573 5569 5563 5555 5547 5538 5528 5520 5513 5507 5502 5499 5499 5503 5515 5526 5540 5547 5560 5569 5573 5577 5591 5599 5609 5619 5631 5639 5650 5660 5664 5666 5668 5669
5653 5647 5644 5641 5636 5631 5632 5619 5613 5602 5599 5593 5586 5581 5575 5570 5562 5554 5546 5538 5526 5516 5506 5500 5490 5481 5478 5477 5479 5485 5502 5515 5527 5544 5553 5558 5564 5575 5585 5597 5607 5618 5627 5636 5647 5655 5663 5667 5666
5652 5646 5639 5636 5630 5628 5625 5612 5608 5602 5594 5589 5584 5579 5573 5564 5555 5545 5539 5527 5514 5504 5493 5482 5470 5459 5454 5451 5452 5458 5471 5491 5505 5524 5537 5544 5551 5561 5572 5585 5596 5606 5616 5626 5637 5646 5657 5666 5662
5653 5640 5641 5637 5631 5623 5622 5614 5611 5603 5592 5589 5585 5580 5572 5562 5553 5544 5533 5521 5509 5497 5483 5466 5450 5430 5421 5423 5420 5429 5442 5463 5481 5501 5521 5530 5540 5552 5562 5572 5583 5595 5605 5616 5629 5642 5650 5656 5660
5654 5654 5642 5635 5635 5621 5615 5616 5610 5604 5596 5589 5585 5580 5572 5566 5557 5545 5533 5518 5504 5489 5472 5452 5428 5409 5394 5390 5391 5400 5414 5433 5456 5479 5500 5515 5526 5538 5548 5559 5572 5584 5593 5604 5617 5633 5642 5652 5659
5664 5658 5654 5634 5637 5629 5621 5617 5618 5609 5597 5588 5584 5579 5573 5563 5552 5540 5528 5514 5499 5480 5460 5437 5410 5392 5379 5370 5371 5378 5389 5408 5430 5456 5479 5499 5510 5524 5537 5549 5560 5571 5584 5594 5608 5621 5631 5645 5657
5645 5651 5657 5643 5635 5630 5624 5625 5626 5614 5600 5590 5583 5578 5566 5556 5544 5532 5520 5504 5488 5468 5443 5420 5399 5378 5364 5357 5357 5361 5368 5386 5407 5431 5458 5481 5494 5508 5524 5537 5550 5563 5574 5585 5598 5613 5625 5635 5649
5657 5654 5650 5648 5633 5622 5630 5627 5627 5618 5605 5593 5585 5573 5561 5552 5540 5524 5507 5492 5473 5455 5431 5411 5390 5369 5352 5341 5342 5347 5351 5368 5389 5412 5438 5462 5481 5494 5511 5525 5539 5552 5566 5574 5586 5601 5616 5630 5639
5651 5641 5635 5643 5633 5623 5631 5623 5625 5614 5598 5588 5577 5565 5558 5549 5538 5523 5504 5485 5465 5445 5427 5406 5383 5363 5343 5336 5331 5333 5339 5353 5374 5389 5418 5444 5467 5481 5498 5513 5527 5541 5555 5561 5579 5593 5605 5617 5632
5640 5623 5624 5625 5635 5640 5629 5630 5618 5608 5600 5591 5581 5572 5560 5546 5532 5516 5498 5478 5457 5436 5415 5399 5375 5350 5331 5326 5327 5325 5330 5344 5359 5382 5401 5428 5452 5469 5483 5501 5516 5532 5543 5550 5566 5579 5589 5602 5625
5643 5626 5625 5629 5628 5622 5627 5607 5614 5607 5597 5593 5582 5570 5557 5543 5529 5511 5493 5470 5451 5431 5413 5393 5364 5341 5328 5321 5319 5318 5323 5332 5351 5365 5385 5406 5427 5454 5472 5489 5505 5519 5528 5540 5556 5571 5582 5596 5607
5632 5629 5624 5624 5621 5623 5626 5622 5616 5614 5594 5587 5578 5568 5557 5543 5527 5509 5488 5471 5450 5428 5405 5384 5364 5338 5318 5318 5319 5318 5321 5327 5339 5355 5373 5392 5416 5443 5464 5480 5495 5510 5520 5532 5548 5561 5573 5585 5596
5639 5639 5641 5628 5621 5609 5619 5612 5609 5597 5588 5584 5576 5569 5557 5543 5529 5509 5491 5471 5450 5429 5409 5390 5367 5348 5334 5326 5321 5318 5320 5323 5333 5347 5359 5381 5404 5430 5445 5466 5483 5499 5515 5529 5543 5552 5568 5580 5592
5641 5641 5641 5622 5613 5612 5609 5606 5602 5600 5595 5586 5578 5570 5559 5545 5529 5512 5493 5471 5452 5431 5410 5393 5374 5358 5345 5333 5323 5321 5319 5323 5330 5340 5354 5371 5394 5414 5432 5456 5476 5493 5508 5520 5532 5544 5557 5569 5585
5625 5621 5603 5589 5607 5610 5612 5593 5599 5606 5601 5595 5584 5573 5559 5546 5532 5516 5497 5476 5455 5436 5416 5396 5380 5366 5353 5340 5329 5322 5320 5323 5330 5337 5349 5365 5379 5403 5425 5449 5471 5488 5501 5513 5525 5537 5549 5569 5580
5619 5610 5608 5594 5611 5597 5627 5612 5611 5614 5604 5594 5583 5573 5560 5548 5535 5520 5502 5483 5461 5441 5422 5403 5385 5374 5361 5349 5338 5330 5324 5321 5326 5333 5343 5356 5373 5398 5419 5441 5462 5480 5494 5509 5523 5534 5546 5559 5575
5613 5609 5598 5598 5585 5588 5617 5617 5609 5606 5598 5592 5583 5575 5564 5552 5539 5525 5509 5489 5469 5451 5432 5413 5395 5381 5368 5356 5345 5337 5330 5327 5326 5329 5338 5352 5366 5392 5414 5435 5455 5471 5488 5505 5518 5532 5544 5558 5570
5611 5612 5602 5595 5595 5584 5586 5605 5611 5604 5597 5590 5586 5580 5568 5555 5543 5530 5513 5496 5478 5460 5442 5423 5406 5390 5377 5365 5354 5343 5335 5330 5329 5328 5333 5346 5363 5386 5407 5427 5448 5465 5482 5498 5513 5527 5536 5552 5564
5616 5609 5608 5587 5594 5590 5591 5587 5626 5611 5601 5595 5586 5582 5572 5561 5547 5534 5520 5505 5488 5470 5452 5436 5417 5401 5385 5374 5363 5352 5343 5336 5334 5331 5329 5342 5358 5380 5401 5422 5441 5459 5473 5486 5503 5519 5529 5541 5550